Location: Le Domaine
(47.0333°N, 76.5361°W)
Time: 19:10:29
(UTC-05:00)

S-56A Canister/Altair - Pass Details

Date: 23 November 2019
Orbit: 633 x 2500 km, 38.9° (Epoch: 08 December)

Event Time Altitude Azimuth Distance (km) Brightness Sun altitude
Rises 14:00:08 0° 208° (SSW) 6,012 13.9 16.7°
Reaches altitude 10° 14:05:14 10° 197° (SSW) 4,813 13.5 16.2°
Maximum altitude 14:14:56 26° 150° (SSE) 3,185 11.1 15.3°
Drops below altitude 10° 14:22:30 10° 99° (E) 3,686 10.8 14.6°
Sets 14:25:46 0° 87° (E) 4,388 11.0 14.3°
